AAL1264 KCLT-KCLE

Flight info

Callsign AAL1264
Flight time 1h 7m
Altitude 35000
Route WEAZL5 CLAWD Q39 ASERY JANYS ROLLN2
Aircraft A321/M-SDE3FGHIRWY/LB1

Departure

Time 2026-05-06 02:13
Airport Charlotte Douglas International Airport (KCLT)

Arrival

Time 2026-05-06 03:20
Airport Cleveland Hopkins International Airport (KCLE)
Time Latitude Longitude Altitude Speed Heading
2026-05-06 01:44 35.21912 -80.94461 732 ft 0 kts 283°
2026-05-06 01:59 35.21909 -80.94433 728 ft 4 kts 264°
2026-05-06 02:00 35.21916 -80.94404 731 ft 4 kts 221°
2026-05-06 02:00 35.21933 -80.94395 732 ft 1 kts 176°
2026-05-06 02:00 35.21937 -80.94395 730 ft 0 kts 176°
2026-05-06 02:05 35.21931 -80.94395 732 ft 3 kts 176°
2026-05-06 02:05 35.21890 -80.94391 732 ft 10 kts 176°
2026-05-06 02:05 35.21817 -80.94385 732 ft 11 kts 175°
2026-05-06 02:06 35.21736 -80.94378 732 ft 12 kts 175°
2026-05-06 02:06 35.21649 -80.94370 732 ft 13 kts 179°
2026-05-06 02:06 35.21584 -80.94440 731 ft 13 kts 246°
2026-05-06 02:06 35.21568 -80.94555 732 ft 14 kts 264°
2026-05-06 02:07 35.21560 -80.94681 732 ft 15 kts 266°
2026-05-06 02:07 35.21553 -80.94814 732 ft 16 kts 266°
2026-05-06 02:07 35.21565 -80.94919 732 ft 11 kts 316°
2026-05-06 02:07 35.21602 -80.94983 733 ft 10 kts 267°
2026-05-06 02:08 35.21641 -80.95024 734 ft 9 kts 358°
2026-05-06 02:08 35.21729 -80.95030 734 ft 17 kts 356°
2026-05-06 02:08 35.21850 -80.95041 734 ft 18 kts 356°
2026-05-06 02:08 35.21976 -80.95051 734 ft 19 kts 355°
2026-05-06 02:09 35.22108 -80.95063 734 ft 19 kts 356°
2026-05-06 02:09 35.22245 -80.95074 734 ft 20 kts 356°
2026-05-06 02:09 35.22387 -80.95087 734 ft 21 kts 355°
2026-05-06 02:09 35.22508 -80.95099 733 ft 15 kts 355°
2026-05-06 02:10 35.22609 -80.95108 733 ft 12 kts 355°
2026-05-06 02:10 35.22690 -80.95115 733 ft 12 kts 354°
2026-05-06 02:10 35.22734 -80.95179 735 ft 4 kts 271°
2026-05-06 02:10 35.22733 -80.95186 735 ft 0 kts 264°
2026-05-06 02:11 35.22732 -80.95192 735 ft 4 kts 264°
2026-05-06 02:11 35.22728 -80.95248 738 ft 5 kts 265°
2026-05-06 02:11 35.22726 -80.95276 740 ft 3 kts 265°
2026-05-06 02:11 35.22723 -80.95315 739 ft 4 kts 264°
2026-05-06 02:12 35.22715 -80.95319 741 ft 1 kts 179°
2026-05-06 02:12 35.22710 -80.95318 741 ft 0 kts 175°
2026-05-06 02:12 35.22675 -80.95315 741 ft 27 kts 175°
2026-05-06 02:12 35.22223 -80.95274 742 ft 99 kts 176°
2026-05-06 02:13 35.21346 -80.95197 739 ft 155 kts 176°
2026-05-06 02:13 35.20201 -80.95090 1212 ft 163 kts 175°
2026-05-06 02:13 35.19083 -80.94979 1973 ft 161 kts 181°
2026-05-06 02:13 35.17994 -80.95475 2235 ft 184 kts 218°
2026-05-06 02:14 35.17309 -80.96903 2435 ft 211 kts 247°
2026-05-06 02:14 35.17058 -80.98788 2581 ft 243 kts 269°
2026-05-06 02:14 35.17628 -81.00822 3098 ft 266 kts 300°
2026-05-06 02:14 35.18990 -81.02425 3768 ft 281 kts 325°
2026-05-06 02:15 35.20866 -81.03190 4508 ft 291 kts 349°
2026-05-06 02:15 35.22889 -81.03468 5229 ft 294 kts 351°
2026-05-06 02:15 35.24929 -81.03724 5965 ft 296 kts 351°
2026-05-06 02:15 35.26980 -81.03973 6714 ft 296 kts 350°
2026-05-06 02:16 35.29028 -81.04224 7464 ft 295 kts 349°
2026-05-06 02:16 35.31068 -81.04482 8232 ft 294 kts 349°
2026-05-06 02:16 35.33095 -81.04741 9003 ft 292 kts 348°
2026-05-06 02:16 35.35115 -81.05001 9784 ft 291 kts 348°
2026-05-06 02:17 35.37146 -81.05268 10277 ft 302 kts 348°
2026-05-06 02:17 35.39303 -81.05561 10400 ft 323 kts 348°
2026-05-06 02:17 35.41603 -81.05873 10521 ft 342 kts 348°
2026-05-06 02:17 35.44011 -81.06195 10886 ft 352 kts 349°
2026-05-06 02:18 35.46462 -81.06513 11432 ft 356 kts 349°
2026-05-06 02:18 35.48932 -81.06827 12020 ft 358 kts 349°
2026-05-06 02:18 35.51415 -81.07140 12627 ft 360 kts 349°
2026-05-06 02:18 35.53912 -81.07456 13244 ft 361 kts 349°
2026-05-06 02:19 35.56421 -81.07772 13844 ft 364 kts 349°
2026-05-06 02:19 35.58957 -81.08031 14328 ft 367 kts 351°
2026-05-06 02:19 35.61520 -81.08241 14813 ft 371 kts 351°
2026-05-06 02:19 35.64109 -81.08431 15298 ft 374 kts 352°
2026-05-06 02:20 35.69354 -81.08814 16260 ft 381 kts 351°
2026-05-06 02:20 35.71971 -81.09018 16734 ft 384 kts 351°
2026-05-06 02:20 35.74648 -81.09232 17203 ft 387 kts 351°
2026-05-06 02:21 35.77348 -81.09449 17648 ft 390 kts 351°
2026-05-06 02:21 35.80071 -81.09669 18094 ft 394 kts 351°
2026-05-06 02:21 35.82813 -81.09891 18489 ft 397 kts 351°
2026-05-06 02:21 35.85578 -81.10114 18864 ft 399 kts 351°
2026-05-06 02:22 35.88357 -81.10336 19224 ft 401 kts 351°
2026-05-06 02:22 35.91147 -81.10563 19639 ft 403 kts 351°
2026-05-06 02:22 35.93948 -81.10792 20069 ft 404 kts 351°
2026-05-06 02:22 35.96759 -81.11022 20487 ft 406 kts 351°
2026-05-06 02:23 35.99577 -81.11252 20898 ft 407 kts 351°
2026-05-06 02:23 36.02411 -81.11481 21298 ft 409 kts 351°
2026-05-06 02:23 36.05256 -81.11710 21707 ft 411 kts 351°
2026-05-06 02:23 36.08115 -81.11941 22120 ft 412 kts 351°
2026-05-06 02:24 36.10983 -81.12173 22533 ft 414 kts 351°
2026-05-06 02:24 36.13863 -81.12410 22912 ft 416 kts 351°
2026-05-06 02:24 36.16758 -81.12650 23277 ft 418 kts 351°
2026-05-06 02:24 36.19664 -81.12888 23677 ft 419 kts 351°
2026-05-06 02:25 36.22577 -81.13127 23993 ft 421 kts 351°
2026-05-06 02:25 36.25502 -81.13367 24321 ft 422 kts 350°
2026-05-06 02:25 36.28435 -81.13606 24649 ft 423 kts 350°
2026-05-06 02:25 36.31375 -81.13846 24963 ft 424 kts 350°
2026-05-06 02:26 36.34322 -81.14086 25237 ft 425 kts 350°
2026-05-06 02:26 36.37280 -81.14327 25557 ft 426 kts 350°
2026-05-06 02:26 36.40243 -81.14569 25828 ft 427 kts 350°
2026-05-06 02:26 36.43219 -81.14817 26137 ft 429 kts 349°
2026-05-06 02:27 36.46200 -81.15071 26470 ft 430 kts 349°
2026-05-06 02:27 36.49188 -81.15329 26774 ft 431 kts 349°
2026-05-06 02:27 36.51171 -81.15501 26959 ft 432 kts 349°
2026-05-06 02:27 36.55189 -81.15853 27365 ft 433 kts 349°
2026-05-06 02:28 36.57183 -81.16025 27531 ft 434 kts 349°
2026-05-06 02:28 36.60203 -81.16282 27825 ft 436 kts 349°
2026-05-06 02:28 36.63231 -81.16536 28106 ft 437 kts 349°
2026-05-06 02:28 36.66267 -81.16790 28383 ft 438 kts 349°
2026-05-06 02:29 36.69311 -81.17050 28671 ft 440 kts 349°
2026-05-06 02:29 36.72366 -81.17314 28902 ft 441 kts 349°
2026-05-06 02:29 36.75432 -81.17580 29135 ft 442 kts 349°
2026-05-06 02:29 36.78504 -81.17847 29361 ft 443 kts 349°
2026-05-06 02:30 36.81584 -81.18114 29621 ft 443 kts 349°
2026-05-06 02:30 36.84652 -81.18380 29948 ft 441 kts 348°
2026-05-06 02:30 36.87711 -81.18644 30256 ft 440 kts 348°
2026-05-06 02:30 36.90758 -81.18903 30533 ft 438 kts 348°
2026-05-06 02:31 36.93795 -81.19161 30806 ft 437 kts 348°
2026-05-06 02:31 36.96825 -81.19417 31053 ft 436 kts 348°
2026-05-06 02:31 36.99841 -81.19675 31298 ft 434 kts 348°
2026-05-06 02:31 37.02847 -81.19936 31554 ft 432 kts 348°
2026-05-06 02:32 37.05841 -81.20200 31823 ft 431 kts 348°
2026-05-06 02:32 37.08824 -81.20462 32078 ft 429 kts 348°
2026-05-06 02:32 37.11796 -81.20720 32315 ft 428 kts 348°
2026-05-06 02:32 37.14758 -81.20976 32588 ft 425 kts 347°
2026-05-06 02:33 37.17705 -81.21232 32870 ft 424 kts 347°
2026-05-06 02:33 37.19652 -81.21401 33031 ft 423 kts 347°
2026-05-06 02:34 37.29413 -81.22244 33924 ft 419 kts 347°
2026-05-06 02:34 37.32311 -81.22498 34152 ft 417 kts 346°
2026-05-06 02:34 37.35203 -81.22754 34362 ft 416 kts 346°
2026-05-06 02:34 37.38089 -81.23010 34570 ft 415 kts 346°
2026-05-06 02:35 37.40929 -81.23260 34764 ft 414 kts 346°
2026-05-06 02:35 37.43845 -81.23514 34927 ft 415 kts 346°
2026-05-06 02:35 37.46678 -81.23761 34974 ft 413 kts 346°
2026-05-06 02:36 37.52402 -81.24261 34964 ft 412 kts 346°
2026-05-06 02:36 37.58111 -81.24765 34946 ft 411 kts 346°
2026-05-06 02:37 37.63815 -81.25266 34996 ft 411 kts 346°
2026-05-06 02:37 37.69509 -81.25769 34959 ft 410 kts 346°
2026-05-06 02:38 37.75199 -81.26271 34971 ft 411 kts 346°
2026-05-06 02:38 37.80905 -81.26774 34974 ft 411 kts 346°
2026-05-06 02:39 37.86614 -81.27275 34965 ft 411 kts 346°
2026-05-06 02:39 37.92322 -81.27780 34968 ft 412 kts 345°
2026-05-06 02:40 37.98031 -81.28295 34931 ft 411 kts 340°
2026-05-06 02:40 38.03737 -81.28817 34922 ft 411 kts 345°
2026-05-06 02:41 38.09442 -81.29319 34912 ft 411 kts 345°
2026-05-06 02:41 38.15144 -81.29815 34897 ft 410 kts 346°
2026-05-06 02:42 38.20841 -81.30322 34891 ft 410 kts 346°
2026-05-06 02:42 38.26491 -81.30826 34900 ft 410 kts 345°
2026-05-06 02:42 38.29385 -81.30808 34900 ft 421 kts 352°
2026-05-06 02:43 38.32309 -81.30569 34899 ft 421 kts 352°
2026-05-06 02:43 38.38164 -81.30076 34899 ft 421 kts 352°
2026-05-06 02:44 38.44021 -81.29582 34884 ft 421 kts 351°
2026-05-06 02:44 38.46894 -81.29692 34885 ft 406 kts 341°
2026-05-06 02:44 38.49604 -81.30429 34886 ft 392 kts 332°
2026-05-06 02:45 38.54579 -81.33021 34881 ft 385 kts 328°
2026-05-06 02:45 38.59518 -81.35693 34901 ft 386 kts 327°
2026-05-06 02:46 38.64466 -81.38362 34892 ft 386 kts 327°
2026-05-06 02:46 38.69422 -81.41044 34888 ft 387 kts 327°
2026-05-06 02:47 38.74376 -81.43734 34886 ft 387 kts 327°
2026-05-06 02:47 38.79329 -81.46427 34884 ft 387 kts 327°
2026-05-06 02:48 38.84283 -81.49123 34885 ft 386 kts 327°
2026-05-06 02:48 38.89226 -81.51824 34880 ft 386 kts 327°
2026-05-06 02:49 38.94168 -81.54533 34869 ft 386 kts 327°
2026-05-06 02:49 38.99116 -81.57245 34876 ft 387 kts 327°
2026-05-06 02:50 39.04072 -81.59956 34866 ft 387 kts 327°
2026-05-06 02:50 39.09025 -81.62680 34893 ft 387 kts 327°
2026-05-06 02:51 39.13977 -81.65409 34888 ft 387 kts 327°
2026-05-06 02:51 39.18904 -81.68120 34879 ft 388 kts 327°
2026-05-06 02:52 39.23877 -81.70853 34874 ft 389 kts 327°
2026-05-06 02:52 39.28853 -81.73591 34914 ft 389 kts 327°
2026-05-06 02:53 39.33810 -81.76333 34865 ft 387 kts 326°
2026-05-06 02:53 39.38753 -81.79080 34861 ft 387 kts 326°
2026-05-06 02:54 39.43707 -81.81833 34861 ft 388 kts 326°
2026-05-06 02:54 39.48667 -81.84591 34862 ft 388 kts 326°
2026-05-06 02:55 39.53634 -81.87355 34887 ft 389 kts 326°
2026-05-06 02:55 39.58601 -81.90118 34878 ft 388 kts 326°
2026-05-06 02:56 39.63562 -81.92889 34876 ft 388 kts 326°
2026-05-06 02:56 39.68525 -81.95663 34873 ft 388 kts 326°
2026-05-06 02:57 39.73486 -81.98446 34880 ft 388 kts 326°
2026-05-06 02:57 39.76053 -81.99656 34817 ft 401 kts 336°
2026-05-06 02:57 39.78882 -82.00089 34580 ft 419 kts 347°
2026-05-06 02:57 39.81842 -81.99848 34150 ft 433 kts 355°
2026-05-06 02:58 39.84870 -81.99131 33109 ft 448 kts 359°
2026-05-06 02:58 39.87941 -81.98354 32155 ft 452 kts 360°
2026-05-06 02:58 39.91051 -81.97612 31181 ft 457 kts
2026-05-06 02:58 39.94202 -81.96883 30298 ft 462 kts
2026-05-06 02:59 39.97350 -81.96148 29715 ft 459 kts
2026-05-06 02:59 40.00488 -81.95402 29037 ft 457 kts
2026-05-06 02:59 40.03600 -81.94647 28412 ft 453 kts
2026-05-06 02:59 40.06649 -81.93901 27779 ft 450 kts
2026-05-06 03:00 40.09715 -81.93151 27141 ft 447 kts
2026-05-06 03:00 40.12801 -81.92400 26515 ft 444 kts
2026-05-06 03:00 40.15786 -81.91673 25920 ft 441 kts
2026-05-06 03:00 40.18790 -81.90945 25330 ft 438 kts
2026-05-06 03:01 40.21780 -81.90224 24731 ft 436 kts
2026-05-06 03:01 40.24758 -81.89507 24156 ft 434 kts
2026-05-06 03:01 40.27719 -81.88790 23590 ft 432 kts
2026-05-06 03:01 40.30664 -81.88070 22991 ft 429 kts
2026-05-06 03:02 40.33581 -81.87350 22479 ft 423 kts
2026-05-06 03:02 40.36450 -81.86639 22035 ft 417 kts
2026-05-06 03:02 40.39282 -81.85953 21586 ft 411 kts
2026-05-06 03:02 40.42072 -81.85301 21158 ft 404 kts
2026-05-06 03:03 40.44824 -81.84671 20734 ft 398 kts
2026-05-06 03:03 40.47538 -81.84051 20309 ft 393 kts
2026-05-06 03:03 40.50215 -81.83435 19884 ft 388 kts
2026-05-06 03:03 40.52850 -81.82825 19621 ft 381 kts
2026-05-06 03:04 40.55514 -81.82215 19268 ft 395 kts
2026-05-06 03:04 40.58238 -81.81594 18594 ft 398 kts
2026-05-06 03:04 40.60948 -81.80962 17972 ft 397 kts
2026-05-06 03:04 40.63653 -81.80323 17502 ft 392 kts
2026-05-06 03:05 40.66334 -81.79687 16976 ft 389 kts
2026-05-06 03:05 40.68978 -81.79059 16809 ft 385 kts
2026-05-06 03:05 40.71618 -81.78439 16856 ft 386 kts
2026-05-06 03:05 40.74267 -81.77819 16850 ft 386 kts
2026-05-06 03:06 40.76916 -81.77200 16850 ft 387 kts
2026-05-06 03:06 40.79563 -81.76581 16883 ft 387 kts
2026-05-06 03:06 40.82212 -81.75959 16886 ft 387 kts
2026-05-06 03:06 40.84863 -81.75334 16891 ft 388 kts
2026-05-06 03:07 40.87525 -81.74714 16888 ft 388 kts
2026-05-06 03:07 40.90192 -81.74463 16888 ft 383 kts 354°
2026-05-06 03:07 40.92857 -81.74355 16885 ft 383 kts 354°
2026-05-06 03:07 40.95478 -81.74244 16882 ft 368 kts 354°
2026-05-06 03:08 40.97973 -81.74129 16880 ft 351 kts 354°
2026-05-06 03:08 41.00394 -81.74020 16710 ft 347 kts 354°
2026-05-06 03:08 41.02763 -81.74218 16214 ft 334 kts 338°
2026-05-06 03:08 41.04877 -81.75262 15751 ft 318 kts 321°
2026-05-06 03:09 41.06600 -81.76977 15289 ft 304 kts 306°
2026-05-06 03:09 41.07876 -81.79142 14814 ft 296 kts 296°
2026-05-06 03:09 41.09006 -81.81375 14379 ft 295 kts 296°
2026-05-06 03:09 41.10168 -81.83653 13945 ft 294 kts 296°
2026-05-06 03:10 41.11311 -81.85887 13516 ft 292 kts 296°
2026-05-06 03:10 41.12435 -81.88081 13070 ft 290 kts 296°
2026-05-06 03:10 41.13582 -81.90318 12624 ft 289 kts 296°
2026-05-06 03:10 41.14689 -81.92490 12148 ft 288 kts 296°
2026-05-06 03:11 41.15818 -81.94743 11366 ft 298 kts 296°
2026-05-06 03:11 41.16994 -81.97061 10583 ft 309 kts 300°
2026-05-06 03:11 41.18719 -81.98921 9754 ft 337 kts 326°
2026-05-06 03:11 41.20959 -82.00063 8818 ft 353 kts 337°
2026-05-06 03:12 41.23370 -82.00815 7837 ft 355 kts 344°
2026-05-06 03:12 41.25745 -82.01336 7214 ft 335 kts 346°
2026-05-06 03:12 41.27988 -82.01644 6779 ft 317 kts
2026-05-06 03:12 41.30075 -82.00930 6352 ft 304 kts 20°
2026-05-06 03:13 41.31953 -81.99810 5895 ft 288 kts 19°
2026-05-06 03:13 41.33844 -81.99414 5427 ft 267 kts 349°
2026-05-06 03:13 41.35510 -82.00186 4979 ft 246 kts 320°
2026-05-06 03:13 41.36548 -82.01825 4561 ft 224 kts 289°
2026-05-06 03:14 41.36718 -82.03787 4089 ft 211 kts 257°
2026-05-06 03:14 41.36061 -82.05505 3630 ft 211 kts 234°
2026-05-06 03:14 41.35115 -82.07032 3184 ft 217 kts 231°
2026-05-06 03:14 41.33996 -82.08334 2932 ft 209 kts 210°
2026-05-06 03:15 41.32653 -82.08705 2921 ft 191 kts 172°
2026-05-06 03:15 41.31433 -82.08045 2935 ft 196 kts 149°
2026-05-06 03:15 41.30282 -82.07053 2936 ft 198 kts 137°
2026-05-06 03:15 41.29705 -82.06124 2938 ft 197 kts 115°
2026-05-06 03:16 41.29389 -82.04406 2936 ft 191 kts 83°
2026-05-06 03:16 41.29773 -82.02771 2935 ft 184 kts 53°
2026-05-06 03:16 41.30608 -82.01564 2924 ft 170 kts 40°
2026-05-06 03:16 41.31433 -82.00497 2928 ft 164 kts 38°
2026-05-06 03:17 41.32238 -81.99427 2923 ft 163 kts 41°
2026-05-06 03:17 41.33001 -81.98309 2876 ft 163 kts 45°
2026-05-06 03:17 41.33746 -81.97169 2729 ft 162 kts 44°
2026-05-06 03:17 41.34476 -81.96032 2538 ft 159 kts 45°
2026-05-06 03:18 41.35175 -81.94934 2315 ft 150 kts 45°
2026-05-06 03:18 41.35840 -81.93888 2115 ft 145 kts 46°
2026-05-06 03:18 41.36487 -81.92869 1914 ft 144 kts 47°
2026-05-06 03:18 41.37132 -81.91853 1721 ft 145 kts 49°
2026-05-06 03:19 41.37763 -81.90859 1518 ft 142 kts 47°
2026-05-06 03:19 41.38402 -81.89852 1321 ft 143 kts 49°
2026-05-06 03:19 41.39039 -81.88846 1128 ft 142 kts 49°
2026-05-06 03:19 41.39677 -81.87840 943 ft 142 kts 49°
2026-05-06 03:20 41.40776 -81.86107 792 ft 73 kts 50°
2026-05-06 03:20 41.41021 -81.85717 790 ft 45 kts 50°
2026-05-06 03:20 41.41177 -81.85469 789 ft 27 kts 51°
2026-05-06 03:21 41.41252 -81.85304 791 ft 18 kts 82°
2026-05-06 03:21 41.41261 -81.85156 791 ft 15 kts 89°
2026-05-06 03:21 41.41303 -81.85042 783 ft 13 kts 49°
2026-05-06 03:21 41.41332 -81.84957 783 ft 6 kts 103°
2026-05-06 03:22 41.41314 -81.84939 783 ft 6 kts 148°
2026-05-06 03:22 41.41258 -81.84889 783 ft 11 kts 143°
2026-05-06 03:22 41.41203 -81.84826 783 ft 9 kts 137°
2026-05-06 03:22 41.41160 -81.84776 784 ft 8 kts 139°
2026-05-06 03:23 41.41107 -81.84714 783 ft 11 kts 133°
2026-05-06 03:23 41.41102 -81.84660 783 ft 4 kts 65°
2026-05-06 03:23 41.41089 -81.84614 783 ft 10 kts 121°
2026-05-06 03:23 41.41022 -81.84521 783 ft 14 kts 141°
2026-05-06 03:24 41.40946 -81.84443 784 ft 13 kts 141°
2026-05-06 03:24 41.40897 -81.84356 785 ft 11 kts 103°
2026-05-06 03:24 41.40908 -81.84264 785 ft 10 kts 63°
2026-05-06 03:24 41.40940 -81.84193 785 ft 8 kts 70°
2026-05-06 03:25 41.40928 -81.84138 785 ft 1 kts 129°
2026-05-06 03:25 41.40918 -81.84128 785 ft 4 kts 141°
2026-05-06 03:25 41.40897 -81.84105 785 ft 2 kts 141°
2026-05-06 03:25 41.40892 -81.84100 785 ft 1 kts 141°
2026-05-06 03:26 41.40891 -81.84099 785 ft 0 kts 141°